DLH85R EGLL-LEBL

Flight info

Callsign DLH85R
Flight time 1h 45m
Altitude 27000
Route MAXIT Y803 MID L151 SITET UN859 LGL/N0478F330 UN859 SOPIL DCT BALAN DCT EVPOK DCT NARAK DCT GAI DCT LOMRA DCT ROCAN DCT PUMAL
Aircraft A343/H-SDE2E3FGHIJ4J5M1RWXY/LB1D1

Departure

Time 2026-05-03 20:58
Airport London Heathrow Airport (EGLL)

Arrival

Time 2026-05-03 22:43
Airport Josep Tarradellas Barcelona-El Prat Airport (LEBL)
Time Latitude Longitude Altitude Speed Heading
2026-05-03 20:58 51.39410 -0.60673 4377 ft 259 kts 174°
2026-05-03 20:58 51.37661 -0.59998 5220 ft 261 kts 162°
2026-05-03 20:58 51.35926 -0.59038 5766 ft 266 kts 161°
2026-05-03 20:58 51.34179 -0.58040 5978 ft 267 kts 161°
2026-05-03 20:59 51.32423 -0.57050 5991 ft 268 kts 162°
2026-05-03 20:59 51.30754 -0.56132 5993 ft 268 kts 163°
2026-05-03 20:59 51.28929 -0.55609 5989 ft 267 kts 180°
2026-05-03 20:59 51.27077 -0.55784 5992 ft 267 kts 186°
2026-05-03 21:00 51.25231 -0.56121 5992 ft 267 kts 188°
2026-05-03 21:00 51.24017 -0.56422 6022 ft 266 kts 190°
2026-05-03 21:00 51.21580 -0.57171 6539 ft 269 kts 192°
2026-05-03 21:00 51.19744 -0.57791 7328 ft 270 kts 192°
2026-05-03 21:01 51.17909 -0.58418 8148 ft 271 kts 192°
2026-05-03 21:01 51.16059 -0.59042 8908 ft 273 kts 192°
2026-05-03 21:01 51.14191 -0.59662 9660 ft 276 kts 192°
2026-05-03 21:01 51.12325 -0.60273 10314 ft 281 kts 192°
2026-05-03 21:02 51.10354 -0.60911 10627 ft 297 kts 192°
2026-05-03 21:02 51.08272 -0.61564 10916 ft 313 kts 190°
2026-05-03 21:02 51.06050 -0.61818 11201 ft 329 kts 179°
2026-05-03 21:02 51.03739 -0.61248 11466 ft 345 kts 166°
2026-05-03 21:03 51.01407 -0.60074 11774 ft 358 kts 161°
2026-05-03 21:03 50.99059 -0.58610 12258 ft 365 kts 159°
2026-05-03 21:03 50.96757 -0.57044 12854 ft 370 kts 158°
2026-05-03 21:03 50.94421 -0.55417 13472 ft 373 kts 158°
2026-05-03 21:04 50.92031 -0.53762 14062 ft 376 kts 158°
2026-05-03 21:04 50.89612 -0.52115 14613 ft 380 kts 159°
2026-05-03 21:04 50.87167 -0.50478 15176 ft 384 kts 159°
2026-05-03 21:04 50.84691 -0.48840 15706 ft 388 kts 159°
2026-05-03 21:05 50.82191 -0.47199 16287 ft 391 kts 159°
2026-05-03 21:05 50.79671 -0.45550 16842 ft 394 kts 159°
2026-05-03 21:05 50.77131 -0.43892 17408 ft 397 kts 160°
2026-05-03 21:05 50.74570 -0.42221 17958 ft 400 kts 160°
2026-05-03 21:06 50.72022 -0.40560 18463 ft 403 kts 160°
2026-05-03 21:06 50.69426 -0.38867 18964 ft 405 kts 160°
2026-05-03 21:06 50.66815 -0.37167 19486 ft 407 kts 160°
2026-05-03 21:06 50.64189 -0.35458 19987 ft 409 kts 160°
2026-05-03 21:07 50.61554 -0.33746 20494 ft 411 kts 160°
2026-05-03 21:07 50.58903 -0.32025 20990 ft 413 kts 160°
2026-05-03 21:07 50.56236 -0.30297 21475 ft 415 kts 160°
2026-05-03 21:07 50.53558 -0.28563 21958 ft 417 kts 160°
2026-05-03 21:08 50.50865 -0.26821 22431 ft 419 kts 161°
2026-05-03 21:08 50.48193 -0.25096 22868 ft 422 kts 161°
2026-05-03 21:08 50.45477 -0.23345 23315 ft 424 kts 161°
2026-05-03 21:08 50.42741 -0.21582 23699 ft 426 kts 161°
2026-05-03 21:09 50.39993 -0.19814 24080 ft 428 kts 161°
2026-05-03 21:09 50.37234 -0.18041 24449 ft 429 kts 161°
2026-05-03 21:09 50.34465 -0.16264 24793 ft 431 kts 161°
2026-05-03 21:09 50.31683 -0.14481 25133 ft 433 kts 161°
2026-05-03 21:10 50.28887 -0.12691 25467 ft 435 kts 161°
2026-05-03 21:10 50.26082 -0.10898 25784 ft 435 kts 161°
2026-05-03 21:10 50.23329 -0.09137 25878 ft 434 kts 161°
2026-05-03 21:10 50.20518 -0.07345 26042 ft 438 kts 161°
2026-05-03 21:11 50.17702 -0.05490 26356 ft 439 kts 160°
2026-05-03 21:11 50.14963 -0.03585 26601 ft 428 kts 160°
2026-05-03 21:11 50.12241 -0.01658 26746 ft 433 kts 160°
2026-05-03 21:11 50.09419 0.00015 26956 ft 435 kts 167°
2026-05-03 21:12 50.06497 0.01361 26932 ft 439 kts 168°
2026-05-03 21:12 50.03559 0.02601 26939 ft 437 kts 169°
2026-05-03 21:12 50.00621 0.03775 26937 ft 435 kts 169°
2026-05-03 21:12 49.97724 0.04901 26936 ft 435 kts 169°
2026-05-03 21:13 49.94787 0.06033 26933 ft 435 kts 170°
2026-05-03 21:13 49.91853 0.07163 26941 ft 434 kts 170°
2026-05-03 21:13 49.88918 0.08298 26937 ft 434 kts 170°
2026-05-03 21:13 49.85990 0.09436 26943 ft 434 kts 170°
2026-05-03 21:14 49.83060 0.10578 26944 ft 434 kts 169°
2026-05-03 21:14 49.80127 0.11725 26948 ft 434 kts 169°
2026-05-03 21:14 49.77196 0.12871 26950 ft 434 kts 170°
2026-05-03 21:14 49.74265 0.14014 26942 ft 434 kts 170°
2026-05-03 21:15 49.71375 0.15139 26954 ft 434 kts 170°
2026-05-03 21:15 49.68448 0.16279 26959 ft 434 kts 170°
2026-05-03 21:15 49.65524 0.17432 26962 ft 434 kts 169°
2026-05-03 21:15 49.62602 0.18609 26963 ft 434 kts 169°
2026-05-03 21:16 49.59681 0.19793 26963 ft 434 kts 169°
2026-05-03 21:16 49.56763 0.20976 26965 ft 434 kts 169°
2026-05-03 21:16 49.53842 0.22158 26967 ft 434 kts 169°
2026-05-03 21:16 49.50920 0.23336 26958 ft 434 kts 170°
2026-05-03 21:17 49.48004 0.24507 26962 ft 433 kts 169°
2026-05-03 21:17 49.46074 0.25281 26939 ft 432 kts 170°
2026-05-03 21:17 49.42219 0.26822 26938 ft 432 kts 170°
2026-05-03 21:17 49.39310 0.27983 26940 ft 432 kts 170°
2026-05-03 21:18 49.36400 0.29143 26949 ft 432 kts 170°
2026-05-03 21:18 49.33486 0.30306 26941 ft 432 kts 170°
2026-05-03 21:18 49.30575 0.31465 26940 ft 432 kts 170°
2026-05-03 21:18 49.27666 0.32653 26932 ft 433 kts 169°
2026-05-03 21:19 49.24767 0.33874 26944 ft 433 kts 169°
2026-05-03 21:19 49.21866 0.35112 26947 ft 432 kts 169°
2026-05-03 21:19 49.18968 0.36348 26931 ft 432 kts 169°
2026-05-03 21:19 49.16109 0.37563 26944 ft 433 kts 169°
2026-05-03 21:20 49.13210 0.38789 26945 ft 432 kts 169°
2026-05-03 21:20 49.10307 0.40010 26932 ft 433 kts 169°
2026-05-03 21:20 49.07406 0.41226 26938 ft 433 kts 169°
2026-05-03 21:20 49.04503 0.42440 26936 ft 432 kts 169°
2026-05-03 21:21 49.01604 0.43650 26944 ft 432 kts 169°
2026-05-03 21:21 48.98708 0.44859 26930 ft 431 kts 169°
2026-05-03 21:21 48.95818 0.46064 26941 ft 430 kts 169°
2026-05-03 21:21 48.92931 0.47267 27006 ft 432 kts 169°
2026-05-03 21:22 48.90056 0.48461 27211 ft 435 kts 169°
2026-05-03 21:22 48.87130 0.49675 27523 ft 437 kts 169°
2026-05-03 21:22 48.84196 0.50890 27848 ft 438 kts 169°
2026-05-03 21:22 48.81253 0.52108 28156 ft 439 kts 169°
2026-05-03 21:23 48.78305 0.53327 28458 ft 440 kts 169°
2026-05-03 21:23 48.75342 0.54521 28758 ft 441 kts 170°
2026-05-03 21:23 48.72381 0.55686 29177 ft 439 kts 170°
2026-05-03 21:23 48.69431 0.56835 29640 ft 436 kts 171°
2026-05-03 21:24 48.66495 0.57974 30085 ft 434 kts 171°
2026-05-03 21:24 48.63617 0.59091 30435 ft 431 kts 171°
2026-05-03 21:24 48.60726 0.60215 30829 ft 429 kts 171°
2026-05-03 21:24 48.57830 0.61339 30942 ft 430 kts 171°
2026-05-03 21:25 48.52061 0.63582 30944 ft 428 kts 171°
2026-05-03 21:25 48.46309 0.65892 30945 ft 428 kts 171°
2026-05-03 21:26 48.40601 0.68234 30945 ft 427 kts 171°
2026-05-03 21:26 48.34886 0.70567 30950 ft 425 kts 171°
2026-05-03 21:27 48.29177 0.72878 30950 ft 425 kts 171°
2026-05-03 21:27 48.23466 0.75176 30950 ft 425 kts 171°
2026-05-03 21:28 48.17796 0.77414 30949 ft 424 kts 171°
2026-05-03 21:28 48.12100 0.79642 30949 ft 423 kts 171°
2026-05-03 21:29 48.06403 0.81872 30948 ft 423 kts 171°
2026-05-03 21:29 48.00706 0.84100 30934 ft 423 kts 171°
2026-05-03 21:30 47.95053 0.86308 30954 ft 423 kts 172°
2026-05-03 21:30 47.89357 0.88526 30952 ft 423 kts 172°
2026-05-03 21:31 47.83664 0.90738 30954 ft 423 kts 172°
2026-05-03 21:31 47.77970 0.92949 30944 ft 423 kts 171°
2026-05-03 21:32 47.72254 0.95155 30950 ft 426 kts 171°
2026-05-03 21:32 47.66556 0.97355 30952 ft 426 kts 171°
2026-05-03 21:33 47.60821 0.99565 30952 ft 426 kts 171°
2026-05-03 21:33 47.55085 1.01770 30947 ft 427 kts 171°
2026-05-03 21:34 47.49327 1.03977 30953 ft 428 kts 171°
2026-05-03 21:34 47.43585 1.05946 30955 ft 423 kts 177°
2026-05-03 21:35 47.37763 1.06364 30942 ft 418 kts 184°
2026-05-03 21:35 47.31946 1.06260 30956 ft 419 kts 185°
2026-05-03 21:36 47.26115 1.06073 30955 ft 419 kts 185°
2026-05-03 21:36 47.20324 1.05912 30966 ft 419 kts 185°
2026-05-03 21:37 47.14487 1.05771 30960 ft 420 kts 185°
2026-05-03 21:37 47.08637 1.05636 30962 ft 421 kts 185°
2026-05-03 21:38 47.02783 1.05502 30967 ft 421 kts 185°
2026-05-03 21:38 46.96928 1.05311 30961 ft 420 kts 186°
2026-05-03 21:39 46.91116 1.05033 30965 ft 421 kts 186°
2026-05-03 21:39 46.85254 1.04760 30966 ft 422 kts 186°
2026-05-03 21:40 46.79387 1.04504 30964 ft 422 kts 186°
2026-05-03 21:40 46.73521 1.04257 30970 ft 422 kts 186°
2026-05-03 21:41 46.67694 1.04010 30965 ft 422 kts 186°
2026-05-03 21:41 46.61828 1.03762 30975 ft 422 kts 186°
2026-05-03 21:42 46.55965 1.03515 30965 ft 422 kts 185°
2026-05-03 21:42 46.50112 1.03955 30977 ft 429 kts 174°
2026-05-03 21:43 46.44241 1.05707 30981 ft 435 kts 172°
2026-05-03 21:43 46.38257 1.07728 30984 ft 448 kts 171°
2026-05-03 21:44 46.35215 1.08768 31167 ft 448 kts 171°
2026-05-03 21:44 46.32210 1.09795 31818 ft 439 kts 172°
2026-05-03 21:44 46.29261 1.10798 32345 ft 433 kts 172°
2026-05-03 21:44 46.26333 1.11781 32695 ft 431 kts 172°
2026-05-03 21:45 46.23417 1.12752 32955 ft 431 kts 173°
2026-05-03 21:45 46.20525 1.13708 32996 ft 432 kts 173°
2026-05-03 21:45 46.14696 1.15632 33005 ft 429 kts 172°
2026-05-03 21:46 46.08866 1.17553 33013 ft 430 kts 172°
2026-05-03 21:46 46.03027 1.19480 33007 ft 431 kts 172°
2026-05-03 21:47 45.97158 1.21412 33021 ft 434 kts 172°
2026-05-03 21:47 45.91303 1.23334 33021 ft 436 kts 172°
2026-05-03 21:48 45.85382 1.25276 33020 ft 436 kts 172°
2026-05-03 21:48 45.79462 1.27212 33019 ft 436 kts 172°
2026-05-03 21:49 45.73535 1.29147 33019 ft 438 kts 172°
2026-05-03 21:49 45.67585 1.31084 33021 ft 439 kts 172°
2026-05-03 21:50 45.61670 1.33004 33020 ft 439 kts 172°
2026-05-03 21:50 45.55709 1.34938 33009 ft 439 kts 172°
2026-05-03 21:51 45.49742 1.36867 33018 ft 440 kts 172°
2026-05-03 21:51 45.43776 1.38799 33015 ft 440 kts 172°
2026-05-03 21:52 45.37849 1.40708 33024 ft 440 kts 172°
2026-05-03 21:52 45.31887 1.42621 33020 ft 438 kts 173°
2026-05-03 21:53 45.25937 1.44528 33018 ft 438 kts 173°
2026-05-03 21:53 45.19994 1.46428 33020 ft 438 kts 173°
2026-05-03 21:54 45.14052 1.48325 33018 ft 438 kts 173°
2026-05-03 21:54 45.08135 1.50209 33020 ft 439 kts 173°
2026-05-03 21:55 45.02176 1.52104 33020 ft 439 kts 173°
2026-05-03 21:55 44.96215 1.53996 33005 ft 441 kts 173°
2026-05-03 21:56 44.90234 1.55888 33006 ft 444 kts 173°
2026-05-03 21:56 44.84203 1.57795 33008 ft 444 kts 173°
2026-05-03 21:57 44.78167 1.59698 33004 ft 444 kts 173°
2026-05-03 21:57 44.72138 1.61595 32997 ft 444 kts 173°
2026-05-03 21:58 44.66108 1.63487 32994 ft 444 kts 173°
2026-05-03 21:58 44.60118 1.65364 32976 ft 444 kts 173°
2026-05-03 21:59 44.54082 1.67251 32994 ft 444 kts 173°
2026-05-03 21:59 44.48052 1.69131 32995 ft 444 kts 173°
2026-05-03 22:00 44.42019 1.71008 32986 ft 444 kts 173°
2026-05-03 22:00 44.36028 1.72867 32982 ft 444 kts 172°
2026-05-03 22:01 44.29994 1.74740 32982 ft 444 kts 172°
2026-05-03 22:01 44.23943 1.76349 32983 ft 441 kts 176°
2026-05-03 22:02 44.18900 1.77379 32981 ft 441 kts 176°
2026-05-03 22:02 44.12824 1.78615 32990 ft 442 kts 176°
2026-05-03 22:03 44.05763 1.80131 32990 ft 442 kts 175°
2026-05-03 22:03 43.99698 1.81464 32980 ft 442 kts 175°
2026-05-03 22:04 43.94649 1.82575 32980 ft 442 kts 175°
2026-05-03 22:04 43.88553 1.83374 32981 ft 439 kts 180°
2026-05-03 22:05 43.82456 1.83800 32981 ft 439 kts 181°
2026-05-03 22:05 43.76354 1.84281 32959 ft 440 kts 180°
2026-05-03 22:06 43.70282 1.84841 32962 ft 440 kts 180°
2026-05-03 22:06 43.64170 1.85435 32965 ft 440 kts 180°
2026-05-03 22:07 43.58052 1.86031 32964 ft 441 kts 179°
2026-05-03 22:07 43.54960 1.86329 32975 ft 442 kts 180°
2026-05-03 22:09 43.53561 1.86463 32972 ft 442 kts 179°
2026-05-03 22:10 43.44352 1.87350 32968 ft 442 kts 179°
2026-05-03 22:10 43.38259 1.87933 32730 ft 442 kts 179°
2026-05-03 22:10 43.35204 1.88227 32305 ft 438 kts 179°
2026-05-03 22:11 43.32169 1.88519 31635 ft 439 kts 179°
2026-05-03 22:11 43.29113 1.88811 30877 ft 442 kts 179°
2026-05-03 22:11 43.26031 1.89102 30120 ft 445 kts 179°
2026-05-03 22:11 43.22927 1.89396 29252 ft 449 kts 179°
2026-05-03 22:12 43.19805 1.89694 28424 ft 451 kts 179°
2026-05-03 22:12 43.16678 1.89995 27807 ft 448 kts 179°
2026-05-03 22:12 43.13586 1.90293 27536 ft 445 kts 179°
2026-05-03 22:12 43.10530 1.90583 27281 ft 447 kts 179°
2026-05-03 22:13 43.07432 1.90876 27024 ft 446 kts 179°
2026-05-03 22:13 43.04345 1.91169 26736 ft 444 kts 179°
2026-05-03 22:13 43.01263 1.91463 26489 ft 443 kts 179°
2026-05-03 22:13 42.98195 1.91755 26230 ft 442 kts 179°
2026-05-03 22:14 42.95135 1.92046 25977 ft 440 kts 179°
2026-05-03 22:14 42.92086 1.92336 25733 ft 438 kts 179°
2026-05-03 22:14 42.89085 1.92620 25500 ft 437 kts 179°
2026-05-03 22:14 42.86052 1.92906 25250 ft 436 kts 179°
2026-05-03 22:15 42.83027 1.93191 25044 ft 435 kts 179°
2026-05-03 22:15 42.80009 1.93474 24855 ft 435 kts 179°
2026-05-03 22:15 42.76994 1.93758 24612 ft 433 kts 179°
2026-05-03 22:15 42.73989 1.94040 24392 ft 433 kts 179°
2026-05-03 22:16 42.70992 1.94322 24160 ft 431 kts 179°
2026-05-03 22:16 42.68004 1.94602 23938 ft 430 kts 179°
2026-05-03 22:16 42.65056 1.94949 23699 ft 431 kts 175°
2026-05-03 22:16 42.62106 1.95564 23258 ft 427 kts 174°
2026-05-03 22:17 42.59189 1.96215 22710 ft 423 kts 174°
2026-05-03 22:17 42.56295 1.96842 22175 ft 419 kts 174°
2026-05-03 22:17 42.53422 1.97447 21638 ft 416 kts 174°
2026-05-03 22:17 42.50576 1.98035 21339 ft 408 kts 175°
2026-05-03 22:18 42.47812 1.98602 21210 ft 396 kts 175°
2026-05-03 22:18 42.45128 1.99149 21075 ft 384 kts 175°
2026-05-03 22:18 42.42519 1.99677 20945 ft 374 kts 175°
2026-05-03 22:18 42.39980 2.00189 20781 ft 364 kts 175°
2026-05-03 22:19 42.37537 2.00681 20625 ft 356 kts 175°
2026-05-03 22:19 42.35107 2.01140 20325 ft 351 kts 177°
2026-05-03 22:19 42.32668 2.01432 19918 ft 352 kts 179°
2026-05-03 22:19 42.30234 2.01687 19503 ft 350 kts 179°
2026-05-03 22:20 42.27808 2.01955 19146 ft 349 kts 179°
2026-05-03 22:20 42.25398 2.02231 18791 ft 347 kts 178°
2026-05-03 22:20 42.22999 2.02512 18446 ft 345 kts 178°
2026-05-03 22:20 42.20615 2.02793 17975 ft 344 kts 179°
2026-05-03 22:21 42.18234 2.03072 17569 ft 343 kts 179°
2026-05-03 22:21 42.15895 2.03352 17102 ft 342 kts 178°
2026-05-03 22:21 42.13533 2.03637 16676 ft 341 kts 178°
2026-05-03 22:21 42.11172 2.03923 16271 ft 340 kts 178°
2026-05-03 22:22 42.08819 2.04207 15882 ft 339 kts 178°
2026-05-03 22:22 42.06475 2.04490 15507 ft 337 kts 179°
2026-05-03 22:22 42.04142 2.04770 15126 ft 336 kts 179°
2026-05-03 22:22 42.01816 2.05048 14750 ft 335 kts 179°
2026-05-03 22:23 41.99493 2.05327 14373 ft 334 kts 179°
2026-05-03 22:23 41.97178 2.05604 14004 ft 334 kts 179°
2026-05-03 22:23 41.94907 2.05876 13696 ft 330 kts 179°
2026-05-03 22:23 41.92633 2.06149 13344 ft 327 kts 179°
2026-05-03 22:24 41.90368 2.06420 12943 ft 327 kts 179°
2026-05-03 22:24 41.88107 2.06686 12556 ft 326 kts 179°
2026-05-03 22:24 41.85849 2.06950 12167 ft 325 kts 178°
2026-05-03 22:24 41.83601 2.07214 11795 ft 324 kts 178°
2026-05-03 22:25 41.81372 2.07484 11585 ft 318 kts 178°
2026-05-03 22:25 41.79196 2.07751 11438 ft 310 kts 178°
2026-05-03 22:25 41.77076 2.08003 11295 ft 302 kts 178°
2026-05-03 22:25 41.75034 2.08245 11155 ft 295 kts 178°
2026-05-03 22:26 41.73008 2.08484 10978 ft 290 kts 178°
2026-05-03 22:26 41.71005 2.08721 10730 ft 287 kts 178°
2026-05-03 22:26 41.69016 2.08958 10452 ft 286 kts 178°
2026-05-03 22:26 41.67033 2.09192 10172 ft 286 kts 178°
2026-05-03 22:27 41.65052 2.09427 9885 ft 285 kts 177°
2026-05-03 22:27 41.63077 2.09662 9598 ft 284 kts 177°
2026-05-03 22:27 41.61129 2.09894 9469 ft 279 kts 177°
2026-05-03 22:27 41.59182 2.10123 9411 ft 282 kts 177°
2026-05-03 22:28 41.57253 2.10352 9298 ft 280 kts 177°
2026-05-03 22:28 41.55312 2.10581 9147 ft 281 kts 177°
2026-05-03 22:28 41.53362 2.10811 9031 ft 282 kts 177°
2026-05-03 22:28 41.51409 2.11041 8907 ft 281 kts 177°
2026-05-03 22:29 41.49464 2.11120 8802 ft 279 kts 190°
2026-05-03 22:29 41.47658 2.10287 8686 ft 274 kts 209°
2026-05-03 22:29 41.46047 2.08949 8563 ft 273 kts 220°
2026-05-03 22:29 41.44784 2.07083 8474 ft 271 kts 239°
2026-05-03 22:30 41.43937 2.04880 8378 ft 271 kts 246°
2026-05-03 22:30 41.43194 2.02572 8286 ft 271 kts 247°
2026-05-03 22:30 41.42480 2.00248 8180 ft 271 kts 248°
2026-05-03 22:30 41.41778 1.97925 8081 ft 270 kts 248°
2026-05-03 22:31 41.41085 1.95611 7865 ft 269 kts 248°
2026-05-03 22:31 41.40397 1.93305 7619 ft 268 kts 248°
2026-05-03 22:31 41.39710 1.91000 7394 ft 266 kts 248°
2026-05-03 22:31 41.39032 1.88723 7175 ft 262 kts 249°
2026-05-03 22:32 41.38372 1.86504 7073 ft 254 kts 249°
2026-05-03 22:32 41.37730 1.84353 6961 ft 247 kts 249°
2026-05-03 22:32 41.37113 1.82284 6844 ft 240 kts 248°
2026-05-03 22:32 41.36506 1.80249 6714 ft 234 kts 249°
2026-05-03 22:33 41.35909 1.78244 6493 ft 232 kts 249°
2026-05-03 22:33 41.35294 1.76269 6253 ft 231 kts 244°
2026-05-03 22:33 41.34346 1.74563 5986 ft 231 kts 221°
2026-05-03 22:33 41.32936 1.73571 5731 ft 233 kts 195°
2026-05-03 22:34 41.31330 1.73708 5493 ft 235 kts 165°
2026-05-03 22:34 41.29794 1.74484 5254 ft 236 kts 160°
2026-05-03 22:34 41.28229 1.75072 5015 ft 232 kts 178°
2026-05-03 22:34 41.26702 1.74743 4892 ft 226 kts 206°
2026-05-03 22:35 41.25474 1.73478 4761 ft 226 kts 233°
2026-05-03 22:35 41.24701 1.71657 4641 ft 227 kts 244°
2026-05-03 22:35 41.24055 1.69735 4538 ft 227 kts 245°
2026-05-03 22:35 41.23419 1.67816 4405 ft 228 kts 245°
2026-05-03 22:36 41.22772 1.65895 4332 ft 225 kts 243°
2026-05-03 22:36 41.21905 1.64163 4331 ft 236 kts 226°
2026-05-03 22:36 41.20517 1.62880 4336 ft 245 kts 199°
2026-05-03 22:36 41.18908 1.62738 4299 ft 224 kts 167°
2026-05-03 22:37 41.17617 1.63690 4181 ft 215 kts 133°
2026-05-03 22:37 41.16911 1.65394 4047 ft 211 kts 102°
2026-05-03 22:37 41.16963 1.67285 4014 ft 198 kts 82°
2026-05-03 22:37 41.17150 1.69055 3923 ft 195 kts 85°
2026-05-03 22:38 41.17325 1.70993 3851 ft 233 kts 80°
2026-05-03 22:38 41.17821 1.73164 3859 ft 250 kts 69°
2026-05-03 22:38 41.18524 1.75268 3558 ft 251 kts 66°
2026-05-03 22:38 41.19265 1.77387 3194 ft 254 kts 66°
2026-05-03 22:39 41.20002 1.79515 3008 ft 254 kts 67°
2026-05-03 22:39 41.20735 1.81650 2997 ft 255 kts 67°
2026-05-03 22:39 41.21457 1.83767 2985 ft 255 kts 67°
2026-05-03 22:39 41.22186 1.85908 2998 ft 255 kts 67°
2026-05-03 22:40 41.22918 1.88050 2985 ft 253 kts 66°
2026-05-03 22:40 41.23639 1.90153 2860 ft 248 kts 67°
2026-05-03 22:40 41.24358 1.92243 2521 ft 249 kts 66°
2026-05-03 22:40 41.25061 1.94292 2159 ft 236 kts 66°
2026-05-03 22:41 41.25708 1.96178 1881 ft 212 kts 67°
2026-05-03 22:41 41.26287 1.97879 1580 ft 192 kts 67°
2026-05-03 22:41 41.26803 1.99403 1295 ft 175 kts 65°
2026-05-03 22:41 41.27295 2.00804 1082 ft 159 kts 65°
2026-05-03 22:42 41.27726 2.02094 818 ft 148 kts 67°
2026-05-03 22:42 41.28147 2.03290 661 ft 140 kts 63°
2026-05-03 22:42 41.28562 2.04491 477 ft 145 kts 64°
2026-05-03 22:42 41.28978 2.05709 293 ft 145 kts 64°
2026-05-03 22:43 41.29391 2.06929 101 ft 144 kts 63°
2026-05-03 22:43 41.29797 2.08097 26 ft 124 kts 65°
2026-05-03 22:43 41.30062 2.08887 27 ft 52 kts 67°
2026-05-03 22:43 41.30130 2.09221 20 ft 27 kts 87°
2026-05-03 22:44 41.30110 2.09410 20 ft 12 kts 131°
2026-05-03 22:44 41.30045 2.09460 23 ft 11 kts 157°
2026-05-03 22:44 41.29979 2.09473 20 ft 8 kts 196°
2026-05-03 22:44 41.29952 2.09416 20 ft 8 kts 246°
2026-05-03 22:45 41.29927 2.09343 20 ft 14 kts 246°
2026-05-03 22:45 41.29880 2.09212 23 ft 16 kts 245°
2026-05-03 22:45 41.29839 2.09100 21 ft 11 kts 244°
2026-05-03 22:45 41.29803 2.09002 23 ft 16 kts 244°
2026-05-03 22:46 41.29735 2.08792 24 ft 34 kts 246°
2026-05-03 22:46 41.29635 2.08500 22 ft 34 kts 246°
2026-05-03 22:46 41.29557 2.08205 19 ft 33 kts 255°
2026-05-03 22:46 41.29465 2.07927 19 ft 32 kts 246°
2026-05-03 22:47 41.29376 2.07663 22 ft 23 kts 245°
2026-05-03 22:47 41.29309 2.07579 20 ft 9 kts 174°
2026-05-03 22:47 41.29258 2.07595 22 ft 8 kts 186°
2026-05-03 22:47 41.29210 2.07543 23 ft 7 kts 225°
2026-05-03 22:48 41.29188 2.07511 27 ft 2 kts 229°
2026-05-03 22:48 41.29175 2.07492 26 ft 2 kts 229°
2026-05-03 22:48 41.29170 2.07484 26 ft 0 kts 230°